Location: Ferchesar
(52.6477°N, 12.4298°E)
Time: 08:51:22
(UTC+01:00)

S-56A Canister/Altair - Pass Details

Date: 16 December 2021
Orbit: 633 x 2499 km, 38.9° (Epoch: 19 January)

Event Time Altitude Azimuth Distance (km) Brightness Sun altitude
Rises 01:50:24 0° 272° (W) 5,324 - -54.6°
Reaches altitude 10° 01:55:50 10° 255° (WSW) 3,927 - -54.0°
Maximum altitude 02:01:18 17° 221° (SW) 2,993 - -53.4°
Drops below altitude 10° 02:05:48 10° 185° (S) 3,085 - -52.9°
Sets 02:09:19 0° 165° (SSE) 3,736 - -52.4°
